Regional Weather Roundup
Issued by NWS Portland, ME

Current Version | Previous Version | Text Only | Print | Product List | Glossary On
Versions: 1 2 3 4 5 6 7 8 9 10 11 12 13 14 15 16 17 18 19 20 21 22 23 24 25 26 27 28 29 30 31 32 33 34 35 36 37 38 39 40 41 42 43 44 45 46 47 48 49 50
000 ASUS41 KGYX 231110 RWRGYX WEATHER ROUNDUP FOR MAINE AND NEW HAMPSHIRE NATIONAL WEATHER SERVICE GRAY ME 600 AM EST FRI FEB 23 2018 MEZ002-005-006-010-012-015-018-020-021-024-026-027-029-231200- MAINE CITY SKY/WX TMP DP RH WIND PRES REMARKS PORTLAND FAIR 26 13 57 VRB3 30.72F SANFORD FAIR 16 14 92 CALM 30.70F BAR HARBOR FAIR 20 12 71 NE6 30.75S WISCASSET FAIR 20 16 84 VRB3 30.75S ROCKLAND FAIR 25 13 60 NE6 30.74S FRYEBURG FAIR 15 15 100 CALM 30.70F LEWISTONAUBURN FAIR 19 16 88 CALM 30.72S AUGUSTA FAIR 21 9 59 NE6 30.73R WATERVILLE FAIR 18 11 74 NE5 30.69R BANGOR FAIR 18 11 74 N3 30.75S GREENVILLE N/A 11 5 77 CALM 30.61F MILLINOCKET FAIR 7 4 87 CALM 30.74S HOULTON FAIR -4 -8 83 CALM 30.69F PRESQUE ISLE FAIR -5 -9 83 CALM 30.71S FRENCHVILLE FAIR 4 0 83 W6 30.63S CARIBOU FAIR -2 -7 79 SW5 30.68S $$ NHZ002-005-008-009-011-012-014-231200- NEW HAMPSHIRE CITY SKY/WX TMP DP RH WIND PRES REMARKS PORTSMOUTH PTCLDY 24 23 95 VRB2 30.69S ROCHESTER FAIR 23 19 85 N5 30.69S NASHUA FAIR 21 21 100 NW3 30.70S MANCHESTER FAIR 23 21 92 N3 30.69R CONCORD FAIR 19 14 81 CALM 30.69F LACONIA FAIR 19 18 95 CALM 30.69F PLYMOUTH FAIR 16 15 95 CALM 30.69S BERLIN FAIR 8 4 83 CALM 30.64F WHITEFIELD FAIR 13 10 88 CALM 30.63F JAFFREY FAIR 19 17 92 CALM 30.64S KEENE MOCLDY 18 18 100 CALM 30.68S LEBANON FAIR 17 15 92 CALM 30.67F MT WASHINGTON PTCLDY 19 -13 23 W17 N/A WCI 4 $$ VTZ005-007-008-231200- VERMONT CITY SKY/WX TMP DP RH WIND PRES REMARKS MONTPELIER FAIR 16 15 96 CALM 30.65F BURLINGTON FAIR 19 15 84 SE6 30.63F $$ MAZ007-012-024-CTZ003-RIZ002-NYZ038-NYZ072-231200- SOUTHERN NEW ENGLAND AND NY CITY SKY/WX TMP DP RH WIND PRES REMARKS BOSTON FAIR 31 28 89 N6 30.70R WORCESTER FAIR 25 22 88 NE5 30.64S NANTUCKET FAIR 36 31 82 NE10 30.66S PROVIDENCE FAIR 33 31 92 N7 30.69R HARTFORD FAIR 29 27 92 N5 30.68R ALBANY CLOUDY 21 16 81 CALM 30.67F NEW YORK CITY CLOUDY 37 32 82 NE12 30.64F $$ ANZ081-ANZ082-ANZ150-NHZ014-MEZ023>029-231200- COASTAL MARINE OBSERVATIONS STATION/POSITION TIME TEMP WIND PRES WAVE AIR SEA DIR/SP/G HT/PER (UTC) (F) (DEG/KT/KT) (MB) (FT/S) MOUNT DESERT ROC 1100 28 30/ 17/ 19 1040.5S MATINICUS ROCK 1000 30 40/ 12/ 14 1040.0R ISLE OF SHOALS 1000 36 60/ 16/ 18 1038.8F JEFFREYS LEDGE 1006 41 N/A 2/12 GEORGES BANK BUO 0950 35 51 1029.3 9/ 8 $$ .............KEY.............. WCI - WIND CHILL TC - TEMPERATURE IN CELSIUS VSB - VISIBILITY IN MILES HX - HEAT INDEX FAIR- INDICATES FEW OR NO CLOUDS BELOW 12,000 FT, WITH NO SIGNIFICANT WEATHER AND/OR OBSTRUCTIONS TO VISIBILITY.

USA.gov is the U.S. government's official web portal to all federal, state and local government web resources and services.